Location: ???????
(55.4362°N, 38.1183°E)
Time: 12:10:34
(UTC+00:00)

Cosmos 2219 Rocket - Pass Details

Date: 28 October 2021
Orbit: 826 x 848 km, 71.0° (Epoch: 01 December)

Event Time Altitude Azimuth Distance (km) Brightness Sun altitude
Rises 17:08:51 0° 215° (SW) 3,362 5.5 -27.5°
Reaches altitude 10° 17:11:16 10° 216° (SW) 2,434 4.8 -27.8°
Maximum altitude 17:16:52 82° 304° (NW) 850 2.1 -28.5°
Enters shadow 17:16:56 81° 319° (NW) 850 2.1 -28.6°
